Погода в Карабулаке

Россия / Республика Ингушетия     43°18′20″N   44°54′33″E
темп.,
°C
ветер,
м/с
пор.,
м/с
влажн.,
%
обл.,
%
осадки,
мм/ч
давл.,
гПа
погр.,
м
24 мая, вт
вт2400:00+11зсз3796100 5.3 1007428
03:00+10з3596100 6.8 1008219
06:00+10з3696100 2.3 1009389
09:00+10з4795100 6.2 1010419
12:00+12зюз458397 1.3 1010490
15:00+14з1272100 1.3 1010549
18:00+11сз1290100 0.7 101257
21:00+10зсз1296100 2.7 101465
25 мая, ср
ср2500:00+10зюз2597100 0.9 1015208
03:00+9з4896100 2.6 1016465
06:00+9зюз4896100 5.6 1018395
09:00+9юз4694100 11.8 1020388
12:00+14юз4469100 0.4 1020972
15:00+16ссз225850 0.5 10191394
18:00+14с12795 0.6 1020125
21:00+10юз229075 2.0 102326
26 мая, чт
чт2600:00+10зюз228977 0.1 102226
03:00+10юз229081 0.0 102238
06:00+10юз128743 0.0 102267
09:00+14сз116795 0.4 1022560
12:00+17с325861 0.3 10221446
15:00+17ссв2156100 0.4 10211420
18:00+16всв237156 0.0 1021267
21:00+11ю228220 0.0 102216
27 мая, пт
пт2700:00+10ююз227916 0.0 102116
03:00+9ююз2276100 0.0 102119
06:00+11ююз227292 0.0 102154
09:00+18всв235651 0.0 1020642
12:00+20в33504 0.0 10191157
15:00+21всв33480 0.0 10181304
18:00+19всв24672 0.0 1018139
21:00+13ю11808 0.0 102012
28 мая, сб
сб2800:00+12ююз21814 0.0 101913
03:00+11ююз11830 0.0 101812
06:00+14юз11760 0.0 101846
09:00+19всв33600 0.0 1016599
12:00+22всв44550 0.0 10151046
15:00+24всв33520 0.0 10141286
18:00+21св35730 0.0 1014289
21:00+15ююв11890 0.0 101511